ICEYE-X36 (59103 NORAD) Tracking and Keplerian Element Data

This shows tracking and keplerian element data for the satellite.

Feedback or suggestion? Click here.




ElementValue
Catalog59103
NameICEYE-X36
Epoch Orbit5020
Epoch Day34.54346994
Epoch Year2025
RAAN163.1423
Inclination97.7789
Eccentricity0.0001276
Argument of Perigee193.9835
Mean Anonmoly166.1353
Mean Motion15.00676254
Decay Rate0.00011362
L11 59103U 24043F 25034.54346994 .00011362 00000+0 90155-3 0 9994
L22 59103 97.7789 163.1423 0001276 193.9835 166.1353 15.00676254 50209



Live tracking and technical data element details for ICEYE-X36 (NORAD 59103). ICEYE-X36 can be tracked NOW for your location showing map with azimuth and elevation plus other details from your city location.







IsCatalogInMostPopularTable: catalog: 59103, numindb: 41
Update: records affected: 1



GetName: 59103 ICEYE-X36

Hit Count: updated at: Wed, 18 Jun 2025 05:22:26 GMT